FENGYUN 1C DEB, 32175

Orbit data source: Space-Track

FENGYUN 1C DEB, 32175 is space debris in SSO originally from a launch on Mon, 10 May 1999 UTC launched from the Taiyaun Space Center, China (TSC). Fengyun 1C debris stems from the Chinese weather satellite Fengyun-1C, which was intentionally destroyed by a Chinese anti-satellite missile in 2007. This event dramatically increased the amount of space debris, with thousands of trackable fragments posing hazards to satellites and human spaceflight. The Fengyun 1C debris cloud has become a focal point in discussions about space sustainability and the need for international regulations to prevent the creation of new debris.

Loading next visibility...
Identifier
32175, 1999-025CTV
Orbit
SSO
Country
Flag of CNCN / PRC
Related business
Manufacturer
Unknown
Mission
Spacecraft
Bus & Motor
Unknown
Mass
Unknown
Launch date (UTC)
1999-05-10 (27 years ago)
Launch vehicle
Unknown
Launch site
Taiyaun Space Center, China (TSC)
Object type
Payload
Rocket body
Debris
Shape & HBR
Unknown shape, 0.1 m
Radar Cross Section
Small (<0.1 m²)

Expand to show TLE details & history
Last TLE update: 3 days ago

TLE from 3 days ago
0 FENGYUN 1C DEB
1 32175U 99025CTV 26163.20554427  .00002262  00000-0  15333-2 0  9999
2 32175  98.8335 149.2578 0147367 181.6727 178.3962 13.96041866623711
Epoch: 2026-06-12T04:55Z
TLE epoch observation values (Epoch: 2026-06-12T04:55:59.024Z)
Latitude
-0.00004°
Longitude
174.72355°
Altitude
1,017.759 km
Speed
7.289 km/s
True Right ascension
09h 57m 01s
True Declination
0° 00' 00"
Sunlit
Object was in daylight at epoch
Visualization orbit readout
Latitude
Unknown
Longitude
Unknown
Altitude
Unknown
Speed
Unknown
Apparent Right ascension
Unknown
Apparent Declination
Unknown
Sunlit
N/A
Visualization observer readout
Local Sidereal Time
02:27:12
Azimuth
Unknown
Elevation
Unknown
Doppler factor
Unknown
Orbital elements
Apogee altitude
1,012.055 km
Perigee altitude
797.404 km
Semi-major axis
7,282.867 km
Eccentricity
0.01474
Inclination
98.8335°
RAAN
149.2578°
Arg. of periapsis
181.6727°
True anomaly
178.44261°
Mean anomaly
178.3962°
Eccentric anomaly
178.41949°
Mean motion
3.49212 °/min
Orbital period
103.09 mins
BSTAR
0.0015333
Loading maneuver chart data...
Computing Atmospheric mass density...
Loading historical data...
Loading historical data...
Loading historical data...
Loading historical data...
Loading historical data...
Loading historical data...
Loading historical data...

Documentation

Showing up to 5 results
|